[[{"header":{"parameterUnit":"m.s-1","parameterCategory":1,"la1":30.2991,"la2":30.254,"lo1":-89.0895,"lo2":-89.0444,"dy":0.0017,"dx":0.0017,"nx":28,"ny":28,"refTime":"2024-02-17T03:00:00:Z","depth":0,"parameterNumber":2,"parameterNumberName":"U-component_of_WINDS"},"data":[0,0,0,0,0,0,0,0,0,0,0,0,0,0,0,0,0,0,0,0,0,0,0,0,0,0,0,0,0,0,0,0,0,0,0,0,0,0,0,0,0,0,0,0,0,0,0,0,0,0,0,0,0,0,0,0,0,0,-1.374,-1.3741,0,-1.3796,-1.3797,-1.3797,-1.375,-1.3748,-1.3746,-1.3744,-1.3804,-1.3808,-1.3811,0,0,0,0,0,0,0,0,0,0,0,0,0,-1.3594,-1.3597,-1.374,-1.3741,-1.3742,-1.3796,-1.3797,-1.3798,-1.3751,-1.3748,-1.3746,-1.3743,-1.3803,-1.3807,-1.3811,0,0,0,0,0,0,0,0,0,0,0,0,0,-1.3655,-1.3598,-1.374,-1.3725,-1.3724,-1.3796,-1.3797,-1.3798,-1.3751,-1.3748,-1.3745,-1.3742,-1.3802,-1.3807,-1.3812,-1.3903,0,0,-1.3828,-1.383,0,0,0,0,0,0,0,0,-1.3651,-1.366,-1.3726,-1.3726,-1.3725,-1.3763,-1.3767,-1.3833,-1.3752,-1.3741,-1.3744,-1.3741,-1.3793,-1.3799,-1.3816,-1.3906,-1.3908,-1.3828,-1.3831,-1.3833,-1.3835,0,0,0,0,0,0,0,-1.3647,-1.3657,-1.3762,-1.3727,-1.3727,-1.3715,-1.3721,-1.378,-1.3783,-1.3742,-1.3738,-1.3745,-1.3792,-1.3811,-1.3817,-1.3909,-1.3828,-1.3833,-1.3836,-1.3838,-1.4076,-1.4079,0,0,0,0,0,0,-1.3644,-1.3654,-1.3761,-1.3764,-1.368,-1.372,-1.3726,-1.3754,-1.3782,-1.3784,-1.3748,-1.3743,-1.3804,-1.3811,-1.3819,-1.3928,-1.3833,-1.3838,-1.3841,-1.4073,-1.4077,-1.4081,0,0,0,0,0,0,-1.3641,-1.3654,-1.3758,-1.3708,-1.3721,-1.3726,-1.3757,-1.3757,-1.3775,-1.3787,-1.3788,-1.3766,-1.3802,-1.3812,-1.3882,-1.3929,-1.3841,-1.3845,-1.4069,-1.4074,-1.4079,-1.4146,0,0,0,0,0,0,-1.3637,-1.3653,-1.3688,-1.3709,-1.3724,-1.3821,-1.376,-1.376,-1.3784,-1.3778,-1.3804,-1.3806,-1.38,-1.3875,-1.3887,-1.3935,-1.3849,-1.4065,-1.4072,-1.4077,-1.4139,-1.4152,-1.4163,0,0,0,0,0,-1.3632,-1.3705,-1.369,-1.3703,-1.3767,-1.3823,-1.3832,-1.3823,-1.3788,-1.3823,-1.383,-1.3805,-1.3921,-1.3882,-1.3896,-1.3946,-1.4062,-1.407,-1.4077,-1.4134,-1.415,-1.4163,0,0,0,0,0,0,-1.369,-1.3708,-1.3691,-1.3773,-1.3797,-1.3815,-1.3859,-1.384,-1.3875,-1.3868,-1.3856,-1.3862,-1.3936,-1.3948,-1.3904,-1.4035,-1.3986,-1.3997,-1.4025,-1.404,-1.4052,-1.4048,-1.3854,0,0,0,0,0,-1.3712,-1.3756,-1.3769,-1.384,-1.3853,-1.3854,-1.3879,-1.3869,-1.3894,-1.3904,-1.3917,-1.3942,-1.3984,-1.4013,-1.4052,-1.414,-1.4145,-1.4181,-1.4193,-1.4203,-1.4212,-1.426,-1.4276,-1.4105,-1.4104,-1.4104,0,0,-1.3759,-1.3774,-1.3803,-1.3852,-1.387,-1.3916,-1.3863,-1.3915,-1.3949,-1.3912,-1.398,-1.399,-1.4017,-1.4097,-1.4133,-1.4109,-1.426,-1.4212,-1.422,-1.4224,-1.4269,-1.4285,-1.4299,-1.411,-1.4109,-1.4108,0,0,-1.3868,-1.3883,-1.3944,-1.3962,-1.3989,-1.3989,-1.4003,-1.4025,-1.403,-1.4096,-1.407,-1.4111,-1.4184,-1.4204,-1.4224,-1.4339,-1.4318,-1.4353,-1.4416,-1.4462,-1.4476,-1.4488,-1.4529,-1.4544,-1.4362,-1.4362,-1.4362,0,-1.3923,-1.3991,-1.3978,-1.4032,-1.4054,-1.4021,-1.4083,-1.4102,-1.414,-1.4157,-1.4129,-1.422,-1.4236,-1.432,-1.4348,-1.4365,-1.4382,-1.435,-1.4475,-1.4486,-1.4497,-1.4537,-1.4553,-1.4366,-1.4366,-1.4365,-1.4365,0,-1.4058,-1.4106,-1.4151,-1.4189,-1.4216,-1.4274,-1.427,-1.4299,-1.4287,-1.429,-1.4359,-1.4376,-1.4419,-1.4438,-1.4427,-1.4521,-1.4505,-1.4476,-1.4427,-1.4518,-1.4555,-1.457,-1.4372,-1.437,-1.4369,-1.4368,0,0,-1.4207,-1.4235,-1.4252,-1.4268,-1.4294,-1.4331,-1.4387,-1.4427,-1.4453,-1.448,-1.4527,-1.4589,-1.4562,-1.4585,-1.4576,-1.4616,-1.4707,-1.4582,-1.4583,-1.4606,-1.4811,-1.4834,-1.4851,-1.4692,-1.4695,-1.4697,-1.4809,0,-1.4318,-1.4414,-1.4403,-1.4495,-1.4539,-1.4508,-1.4556,-1.4578,-1.4581,-1.462,-1.4624,-1.4668,-1.4629,-1.4642,-1.4681,-1.4688,-1.4748,-1.4679,-1.4736,-1.4738,-1.4732,-1.4871,-1.4895,-1.5,-1.4823,-1.4826,-1.4828,0,-1.446,-1.4491,-1.4588,-1.4606,-1.4624,-1.4668,-1.4704,-1.474,-1.4764,-1.4764,-1.4789,-1.4772,-1.4828,-1.4777,-1.4854,-1.4808,-1.483,-1.4837,-1.484,-1.4847,-1.479,-1.4882,-1.5034,-1.505,-1.485,-1.4848,-1.4847,0,-1.456,-1.4626,-1.4692,-1.4707,-1.473,-1.4762,-1.4773,-1.4794,-1.4818,-1.485,-1.4866,-1.4903,-1.4925,-1.4954,-1.4948,-1.4911,-1.5028,-1.4976,-1.503,-1.503,-1.5057,-1.5056,-1.5216,-1.507,-1.5069,-1.5069,-1.5069,0,-1.4686,-1.4746,-1.4737,-1.4778,-1.4845,-1.4832,-1.4898,-1.4905,-1.4924,-1.4966,-1.494,-1.4981,-1.497,-1.5009,-1.5005,-1.507,-1.5079,-1.5081,-1.508,-1.5085,-1.5085,-1.51,-1.5093,-1.5073,-1.5072,-1.5072,-1.5071,0,-1.481,-1.4806,-1.4876,-1.4892,-1.4897,-1.4946,-1.496,-1.4998,-1.4999,-1.5052,-1.5064,-1.5066,-1.5111,-1.5108,-1.5159,-1.5156,-1.5237,-1.5226,-1.5229,-1.5227,-1.5281,-1.5277,-1.5458,-1.5482,-1.5319,-1.5321,-1.5322,0,-1.4891,-1.4937,-1.4957,-1.4982,-1.4996,-1.5038,-1.5062,-1.5051,-1.5078,-1.5107,-1.5142,-1.5185,-1.5219,-1.5292,-1.5299,-1.5337,-1.5328,-1.5389,-1.5334,-1.5337,-1.533,-1.5328,-1.5333,-1.54,-1.5402,-1.5404,-1.5405,0,-1.5036,-1.5031,-1.5067,-1.5103,-1.5133,-1.5161,-1.5186,-1.5209,-1.5199,-1.5231,-1.5276,-1.5302,-1.5354,-1.5397,-1.5433,-1.5445,-1.5424,-1.5422,-1.5437,-1.5443,-1.5443,-1.5444,-1.5259,-1.5418,-1.5417,-1.5416,-1.5415,-1.5415,-1.5141,-1.518,-1.52,-1.5241,-1.5259,-1.5282,-1.5319,-1.5324,-1.5362,-1.5402,-1.5393,-1.5444,-1.5465,-1.5512,-1.5528,-1.5568,-1.5546,-1.5567,-1.5573,-1.5579,-1.5585,-1.5435,-1.5574,-1.5574,-1.5574,-1.5573,-1.5573,0,-1.5285,-1.5296,-1.5334,-1.5369,-1.5402,-1.5377,-1.5403,-1.5432,-1.5478,-1.5499,-1.5532,-1.5584,-1.5625,-1.5634,-1.5673,-1.5704,-1.5695,-1.5715,-1.5713,-1.5716,-1.5602,-1.5586,-1.5721,-1.5721,-1.5721,-1.5721,-1.5721,-1.5721,-1.5364,-1.5429,-1.5427,-1.5499,-1.551,-1.5559,-1.5576,-1.5598,-1.5615,-1.5674,-1.5708,-1.5713,-1.5729,-1.5769,-1.5806,-1.5807,-1.5823,-1.5847,-1.5845,-1.5739,-1.5724,-1.571,-1.5695,-1.585,-1.5851,-1.5955,-1.5956,-1.5957]},{"header":{"parameterUnit":"m.s-1","parameterCategory":1,"la1":30.2991,"la2":30.254,"lo1":-89.0895,"lo2":-89.0444,"dy":0.0017,"dx":0.0017,"nx":28,"ny":28,"refTime":"2024-02-17T03:00:00:Z","depth":0,"parameterNumber":3,"parameterNumberName":"V-component_of_WINDS"},"data":[0,0,0,0,0,0,0,0,0,0,0,0,0,0,0,0,0,0,0,0,0,0,0,0,0,0,0,0,0,0,0,0,0,0,0,0,0,0,0,0,0,0,0,0,0,0,0,0,0,0,0,0,0,0,0,0,0,0,-6.8456,-6.8457,0,-6.8541,-6.8542,-6.8543,-6.8457,-6.8453,-6.845,-6.8447,-6.8529,-6.8534,-6.8539,0,0,0,0,0,0,0,0,0,0,0,0,0,-6.8215,-6.822,-6.8456,-6.8457,-6.8458,-6.854,-6.8542,-6.8543,-6.8457,-6.8453,-6.8449,-6.8445,-6.8527,-6.8533,-6.8539,0,0,0,0,0,0,0,0,0,0,0,0,0,-6.8311,-6.8221,-6.8456,-6.8426,-6.8424,-6.854,-6.8542,-6.8543,-6.8458,-6.8453,-6.8448,-6.8444,-6.8525,-6.8533,-6.854,-6.8689,0,0,-6.8565,-6.8568,0,0,0,0,0,0,0,0,-6.8306,-6.832,-6.8429,-6.8428,-6.8426,-6.8483,-6.8486,-6.8592,-6.8459,-6.8445,-6.8447,-6.8441,-6.8517,-6.8525,-6.8552,-6.8693,-6.8697,-6.8565,-6.857,-6.8573,-6.8576,0,0,0,0,0,0,0,-6.8299,-6.8316,-6.8489,-6.8431,-6.8429,-6.8406,-6.8414,-6.8506,-6.8508,-6.8446,-6.844,-6.8451,-6.8515,-6.8545,-6.8553,-6.8698,-6.8565,-6.8572,-6.8577,-6.858,-6.8964,-6.8969,0,0,0,0,0,0,-6.8297,-6.8311,-6.8487,-6.8492,-6.8353,-6.8414,-6.8423,-6.847,-6.8507,-6.8508,-6.8456,-6.8447,-6.8534,-6.8544,-6.8556,-6.8732,-6.8573,-6.8581,-6.8585,-6.8958,-6.8965,-6.8971,0,0,0,0,0,0,-6.8292,-6.8313,-6.8483,-6.84,-6.842,-6.8424,-6.8476,-6.8474,-6.8503,-6.8514,-6.8513,-6.8486,-6.853,-6.8545,-6.8657,-6.8734,-6.8584,-6.8592,-6.8952,-6.896,-6.8968,-6.9086,0,0,0,0,0,0,-6.8285,-6.8312,-6.837,-6.8402,-6.8425,-6.8585,-6.8481,-6.8479,-6.8518,-6.8508,-6.8542,-6.8543,-6.8527,-6.8646,-6.8665,-6.8742,-6.8598,-6.8945,-6.8956,-6.8965,-6.9075,-6.9097,-6.9116,0,0,0,0,0,-6.8277,-6.8399,-6.8374,-6.8395,-6.8498,-6.8589,-6.8602,-6.8583,-6.8524,-6.8582,-6.8589,-6.8542,-6.8722,-6.8658,-6.8679,-6.8759,-6.894,-6.8953,-6.8965,-6.9066,-6.9093,-6.9116,0,0,0,0,0,0,-6.8375,-6.8403,-6.8375,-6.8511,-6.8549,-6.8575,-6.8647,-6.8612,-6.8666,-6.8654,-6.8626,-6.8635,-6.8754,-6.8767,-6.8695,-6.8905,-6.8821,-6.8838,-6.8891,-6.8917,-6.8937,-6.8931,-6.8604,0,0,0,0,0,-6.8412,-6.8486,-6.8506,-6.8624,-6.8645,-6.8643,-6.8682,-6.8664,-6.8701,-6.8716,-6.8731,-6.8768,-6.8832,-6.8875,-6.8935,-6.9077,-6.9082,-6.9143,-6.9163,-6.918,-6.9194,-6.9269,-6.9296,-6.9011,-6.9011,-6.9011,0,0,-6.849,-6.8515,-6.8563,-6.8645,-6.8672,-6.8747,-6.8657,-6.8741,-6.8796,-6.8728,-6.8836,-6.8848,-6.8886,-6.9014,-6.907,-6.9029,-6.9274,-6.9195,-6.9209,-6.9214,-6.9284,-6.9311,-6.9335,-6.9019,-6.9018,-6.9017,0,0,-6.8671,-6.8698,-6.8799,-6.8828,-6.8871,-6.8869,-6.8893,-6.8925,-6.893,-6.9038,-6.8989,-6.9053,-6.9165,-6.9194,-6.9224,-6.9416,-6.9374,-6.9436,-6.9542,-6.9615,-6.9637,-6.9657,-6.9724,-6.9749,-6.945,-6.9451,-6.9451,0,-6.8762,-6.8876,-6.8855,-6.8943,-6.8979,-6.8923,-6.9024,-6.9053,-6.9113,-6.9138,-6.9091,-6.9231,-6.9253,-6.9386,-6.9433,-6.9459,-6.9484,-6.9431,-6.9636,-6.9656,-6.9674,-6.9737,-6.9763,-6.9458,-6.9457,-6.9456,-6.9456,0,-6.8985,-6.9064,-6.914,-6.9201,-6.9246,-6.934,-6.9332,-6.938,-6.9358,-6.936,-6.9469,-6.9494,-6.9558,-6.9588,-6.9567,-6.9718,-6.969,-6.9641,-6.9556,-6.9708,-6.9768,-6.9792,-6.9468,-6.9466,-6.9464,-6.9462,0,0,-6.9229,-6.9278,-6.9306,-6.9332,-6.9375,-6.9435,-6.9525,-6.9589,-6.9631,-6.9673,-6.9747,-6.9844,-6.9798,-6.9831,-6.9813,-6.9877,-7.0026,-6.9819,-6.9819,-6.9856,-7.0192,-7.0229,-7.0258,-6.9999,-7.0003,-7.0007,-7.0188,0,-6.941,-6.957,-6.9553,-6.9704,-6.9776,-6.9724,-6.9803,-6.9836,-6.9841,-6.9901,-6.9904,-6.9973,-6.9908,-6.9928,-6.9989,-6.9995,-7.0093,-6.9981,-7.0066,-7.0069,-7.0057,-7.0289,-7.0328,-7.0498,-7.0211,-7.0215,-7.0218,0,-6.9643,-6.9696,-6.9855,-6.9886,-6.9915,-6.9987,-7.0043,-7.0102,-7.0139,-7.0137,-7.0175,-7.0145,-7.0234,-7.0149,-7.0269,-7.0194,-7.0227,-7.0235,-7.0241,-7.0248,-7.0152,-7.0301,-7.0552,-7.0577,-7.0255,-7.0252,-7.0249,0,-6.9805,-6.9915,-7.0024,-7.0048,-7.0088,-7.0139,-7.0157,-7.0189,-7.0228,-7.0277,-7.0302,-7.036,-7.0392,-7.0437,-7.0422,-7.0362,-7.0546,-7.046,-7.0546,-7.0546,-7.0587,-7.0584,-7.0846,-7.061,-7.0609,-7.0609,-7.0608,0,-7.0008,-7.0107,-7.0097,-7.0164,-7.0272,-7.0252,-7.0359,-7.037,-7.0399,-7.0466,-7.0424,-7.0487,-7.0465,-7.0526,-7.0515,-7.0616,-7.0631,-7.0631,-7.0627,-7.0635,-7.0635,-7.0655,-7.0643,-7.0616,-7.0614,-7.0613,-7.0612,0,-7.0207,-7.0204,-7.0319,-7.0348,-7.0357,-7.0435,-7.0458,-7.052,-7.0521,-7.0606,-7.0625,-7.0626,-7.0696,-7.0686,-7.0764,-7.0756,-7.0882,-7.0864,-7.0871,-7.0866,-7.0953,-7.0944,-7.1237,-7.1273,-7.1014,-7.1017,-7.1019,0,-7.0337,-7.0412,-7.0448,-7.0491,-7.0513,-7.0582,-7.0623,-7.0605,-7.0648,-7.0695,-7.0751,-7.0817,-7.0869,-7.0983,-7.0989,-7.1048,-7.103,-7.1129,-7.1039,-7.1044,-7.1031,-7.1026,-7.1033,-7.1146,-7.1149,-7.1152,-7.1154,0,-7.0567,-7.0562,-7.0623,-7.0683,-7.0733,-7.0779,-7.0821,-7.0857,-7.0843,-7.0893,-7.0965,-7.1006,-7.1086,-7.1151,-7.1207,-7.1223,-7.1186,-7.1182,-7.1205,-7.1213,-7.1214,-7.1214,-7.0918,-7.1175,-7.1173,-7.1172,-7.117,-7.117,-7.0735,-7.0799,-7.0835,-7.0903,-7.0933,-7.0973,-7.1032,-7.1041,-7.1101,-7.1166,-7.1151,-7.1232,-7.1265,-7.1335,-7.1358,-7.1419,-7.1383,-7.1417,-7.1425,-7.1433,-7.1443,-7.1205,-7.1429,-7.1429,-7.1428,-7.1428,-7.1427,0,-7.0962,-7.0983,-7.1046,-7.1107,-7.116,-7.1123,-7.1166,-7.1213,-7.1285,-7.132,-7.1373,-7.1455,-7.1518,-7.153,-7.159,-7.1637,-7.1621,-7.1653,-7.1649,-7.1653,-7.1473,-7.1447,-7.1665,-7.1665,-7.1665,-7.1665,-7.1665,-7.1665,-7.1087,-7.1193,-7.1192,-7.1312,-7.1331,-7.1411,-7.144,-7.1475,-7.1503,-7.1597,-7.165,-7.1658,-7.1683,-7.1744,-7.18,-7.1802,-7.1825,-7.1864,-7.1859,-7.169,-7.1666,-7.1643,-7.1619,-7.187,-7.187,-7.2034,-7.2036,-7.2037]}]]